TimePST,TemperatureF,Dew PointF,Humidity,Sea Level PressureIn,VisibilityMPH,Wind Direction,Wind SpeedMPH,Gust SpeedMPH,PrecipitationIn,Events,Conditions,WindDirDegrees,DateUTC
12:53 AM,62.1,59.0,90,30.06,10.0,SE,9.2,-,0.02,,Overcast,130,2012-11-17 08:53:00
1:53 AM,61.0,57.9,90,30.05,10.0,SE,5.8,-,N/A,,Overcast,130,2012-11-17 09:53:00
2:34 AM,62.6,60.8,94,30.05,10.0,Calm,Calm,-,N/A,,Overcast,0,2012-11-17 10:34:00
2:53 AM,62.1,59.0,90,30.04,10.0,Calm,Calm,-,N/A,,Overcast,0,2012-11-17 10:53:00
3:01 AM,62.6,57.2,82,30.04,8.0,East,3.5,-,0.00,Rain,Light Rain,90,2012-11-17 11:01:00
3:53 AM,60.8,57.2,88,30.04,9.0,ESE,3.5,-,N/A,,Overcast,120,2012-11-17 11:53:00
4:53 AM,61.0,57.9,90,30.05,7.0,Calm,Calm,-,0.00,,Scattered Clouds,0,2012-11-17 12:53:00
5:53 AM,60.1,57.0,90,30.06,6.0,Calm,Calm,-,N/A,,Scattered Clouds,0,2012-11-17 13:53:00
6:53 AM,60.1,57.9,93,30.08,6.0,Calm,Calm,-,N/A,,Overcast,0,2012-11-17 14:53:00
7:53 AM,61.0,57.9,90,30.09,5.0,Calm,Calm,-,N/A,,Overcast,0,2012-11-17 15:53:00
8:53 AM,64.0,59.0,84,30.10,6.0,ENE,5.8,-,N/A,,Haze,70,2012-11-17 16:53:00
9:53 AM,64.9,59.0,81,30.11,10.0,ESE,4.6,-,0.00,,Mostly Cloudy,120,2012-11-17 17:53:00
10:53 AM,66.0,55.9,70,30.10,10.0,SSE,6.9,-,N/A,,Overcast,160,2012-11-17 18:53:00
11:53 AM,68.0,57.0,68,30.07,10.0,SSE,6.9,-,N/A,,Overcast,160,2012-11-17 19:53:00
12:53 PM,66.9,57.0,70,30.06,10.0,SSE,9.2,-,N/A,,Overcast,160,2012-11-17 20:53:00
1:53 PM,68.0,57.9,70,30.05,10.0,South,8.1,-,N/A,,Mostly Cloudy,170,2012-11-17 21:53:00
2:53 PM,66.9,57.9,73,30.04,10.0,SSE,8.1,-,N/A,,Overcast,160,2012-11-17 22:53:00
3:53 PM,66.0,57.9,75,30.05,10.0,SSE,8.1,-,N/A,,Overcast,160,2012-11-17 23:53:00
4:53 PM,64.0,60.1,87,30.05,3.0,South,4.6,-,0.01,Rain,Rain,170,2012-11-18 00:53:00
4:59 PM,62.6,60.8,94,30.05,2.5,Calm,Calm,-,0.02,Rain,Heavy Rain,0,2012-11-18 00:59:00
5:05 PM,64.4,60.8,88,30.05,5.0,Variable,3.5,-,0.04,Rain,Light Rain,0,2012-11-18 01:05:00
5:15 PM,64.4,60.8,88,30.05,8.0,SSE,4.6,-,0.04,,Overcast,160,2012-11-18 01:15:00
5:53 PM,64.0,60.1,87,30.06,10.0,South,4.6,-,0.04,,Overcast,180,2012-11-18 01:53:00
6:00 PM,64.4,60.8,88,30.06,10.0,SSE,4.6,-,N/A,,Overcast,160,2012-11-18 02:00:00
6:06 PM,64.4,60.8,88,30.06,6.0,Variable,4.6,-,0.00,Rain,Light Rain,0,2012-11-18 02:06:00
6:20 PM,62.6,60.8,94,30.06,6.0,South,3.5,-,0.00,Rain,Light Rain,170,2012-11-18 02:20:00
6:33 PM,64.4,60.8,88,30.06,10.0,SSE,4.6,-,0.00,,Overcast,160,2012-11-18 02:33:00
6:53 PM,63.0,59.0,87,30.06,10.0,South,4.6,-,0.00,,Overcast,180,2012-11-18 02:53:00
7:53 PM,63.0,59.0,87,30.07,10.0,Variable,4.6,-,N/A,,Overcast,0,2012-11-18 03:53:00
8:00 PM,62.6,59.0,88,30.08,10.0,South,4.6,-,N/A,,Overcast,170,2012-11-18 04:00:00
8:25 PM,62.6,59.0,88,30.07,10.0,SSE,5.8,-,N/A,,Overcast,150,2012-11-18 04:25:00
8:53 PM,62.1,59.0,90,30.08,10.0,Calm,Calm,-,N/A,,Mostly Cloudy,0,2012-11-18 04:53:00
9:04 PM,62.6,59.0,88,30.08,10.0,Calm,Calm,-,N/A,,Mostly Cloudy,0,2012-11-18 05:04:00
9:53 PM,62.1,59.0,90,30.09,10.0,SSE,3.5,-,N/A,,Overcast,160,2012-11-18 05:53:00
10:53 PM,61.0,57.9,90,30.10,10.0,Calm,Calm,-,N/A,,Overcast,0,2012-11-18 06:53:00
11:26 PM,60.8,57.2,88,30.10,10.0,South,3.5,-,N/A,,Scattered Clouds,180,2012-11-18 07:26:00
11:48 PM,60.8,57.2,88,30.11,10.0,Calm,Calm,-,N/A,,Scattered Clouds,0,2012-11-18 07:48:00
11:53 PM,61.0,57.0,87,30.11,10.0,Calm,Calm,-,N/A,,Mostly Cloudy,0,2012-11-18 07:53:00